EW7744 Weather Reports


time (UTC)temp
C
wind
direction
speed
KPH
gust
KPH
rain 1hr
cm
rain 24hr
cm
rain mn
cm
humidity
%
barometer
mb
20260504050709 16 261 25.7 45.1 0.00 0.00 0.00 36 1002.5
20260504050157 16 261 27.4 46.7 0.00 0.00 0.00 35 1002.4
20260504045553 17 261 25.7 46.7 0.00 0.00 0.00 35 1002.1
20260504045044 17 261 25.7 45.1 0.00 0.00 0.00 35 1002.0
20260504044533 17 261 27.4 45.1 0.00 0.00 0.00 34 1001.9
20260504044024 17 261 20.9 38.6 0.00 0.00 0.00 32 1002.0
20260504043513 18 261 17.7 25.7 0.00 0.00 0.00 32 1001.7
20260504043504 18 261 19.3 29.0 0.00 0.00 0.00 31 1001.6
20260504042453 18 261 20.9 32.2 0.00 0.00 0.00 31 1001.5
20260504041943 18 261 19.3 32.2 0.00 0.00 0.00 31 1001.5
20260504041433 18 261 17.7 25.7 0.00 0.00 0.00 31 1001.6
20260504040931 18 261 17.7 25.7 0.00 0.00 0.00 30 1001.5
20260504040421 18 261 17.7 25.7 0.00 0.00 0.00 30 1001.5
20260504040413 18 261 16.1 30.6 0.00 0.00 0.00 29 1001.5
20260504035401 18 261 19.3 30.6 0.00 0.00 0.00 29 1001.5
20260504034852 18 261 24.1 33.8 0.00 0.00 0.00 29 1001.4
20260504034341 18 261 24.1 33.8 0.00 0.00 0.00 29 1001.5
20260504033831 17 261 19.3 30.6 0.00 0.00 0.00 30 1001.5
20260504033321 16 261 16.1 29.0 0.00 0.00 0.00 33 1001.5
20260504032811 16 261 16.1 20.9 0.00 0.00 0.00 36 1001.5
20260504032303 16 261 17.7 38.6 0.00 0.00 0.00 35 1001.4
20260504031751 17 261 17.7 38.6 0.00 0.00 0.00 34 1001.4
20260504031233 17 261 17.7 24.1 0.00 0.00 0.00 34 1001.3
20260504031216 17 261 17.7 24.1 0.00 0.00 0.00 33 1001.2
20260504030820 17 261 17.7 24.1 0.00 0.00 0.00 34 1001.2
20260504025704 17 261 17.7 24.1 0.00 0.00 0.00 33 1001.2
20260504025154 17 261 17.7 25.7 0.00 0.00 0.00 33 1001.3
20260504024645 17 261 16.1 24.1 0.00 0.00 0.00 32 1001.4
20260504024133 17 261 14.5 22.5 0.00 0.00 0.00 32 1001.3
20260504024124 17 261 14.5 20.9 0.00 0.00 0.00 32 1001.3
20260504023114 17 261 14.5 19.3 0.00 0.00 0.00 32 1001.2
20260504023104 18 261 14.5 19.3 0.00 0.00 0.00 32 1001.2
20260504022054 18 261 12.9 17.7 0.00 0.00 0.00 32 1001.3
20260504022045 18 261 11.3 17.7 0.00 0.00 0.00 32 1001.3
20260504021033 18 261 11.3 16.1 0.00 0.00 0.00 31 1001.3
20260504020524 18 261 11.3 16.1 0.00 0.00 0.00 30 1001.3
20260504020013 18 261 11.3 16.1 0.00 0.00 0.00 29 1001.4
20260504015503 19 261 11.3 16.1 0.00 0.00 0.00 28 1001.5
20260504014953 19 261 11.3 22.5 0.00 0.00 0.00 27 1001.5
20260504014444 20 261 12.9 22.5 0.00 0.00 0.00 26 1001.6
20260504013933 20 261 14.5 25.7 0.00 0.00 0.00 26 1001.9
20260504013424 20 261 16.1 25.7 0.00 0.00 0.00 25 1001.9
20260504012913 20 261 17.7 24.1 0.00 0.00 0.00 24 1002.0
20260504012403 21 261 17.7 24.1 0.00 0.00 0.00 23 1002.0
20260504011853 21 261 19.3 25.7 0.00 0.00 0.00 22 1002.1
20260504011344 21 261 19.3 25.7 0.00 0.00 0.00 22 1002.1
20260504011334 21 261 20.9 32.2 0.00 0.00 0.00 21 1002.2
20260504010324 21 261 22.5 35.4 0.00 0.00 0.00 21 1002.2
20260504005811 21 261 24.1 37.0 0.00 0.00 0.00 20 1002.3
20260504005304 22 261 24.1 37.0 0.00 0.00 0.00 19 1002.4
20260504004751 22 261 20.9 32.2 0.00 0.00 0.00 19 1002.4
20260504004241 22 261 22.5 38.6 0.00 0.00 0.00 18 1002.5
20260504003731 22 261 24.1 38.6 0.00 0.00 0.00 18 1002.5
20260504003222 22 261 25.7 37.0 0.00 0.00 0.00 17 1002.6
20260504002712 22 261 27.4 43.5 0.00 0.00 0.00 17 1002.6
20260504002202 22 261 27.4 43.5 0.00 0.00 0.00 18 1002.6
20260504001643 22 261 29.0 45.1 0.00 0.00 0.00 19 1002.7
20260504001634 22 261 30.6 45.1 0.00 0.00 0.00 20 1002.9
20260504000623 22 261 32.2 43.5 0.00 0.00 0.00 21 1002.9
20260504000113 22 261 30.6 46.7 0.00 0.00 0.00 21 1003.0
20260503235604 22 261 27.4 46.7 0.00 0.00 0.00 22 1003.0
20260503235049 22 261 27.4 40.2 0.00 0.00 0.00 20 1003.1
20260503234539 23 261 30.6 46.7 0.00 0.00 0.00 20 1003.3
20260503234029 23 261 32.2 46.7 0.00 0.00 0.00 21 1003.3
20260503234021 22 261 29.0 43.5 0.00 0.00 0.00 22 1003.1
20260503233010 22 261 30.6 43.5 0.00 0.00 0.00 21 1003.3
20260503232511 22 261 30.6 46.7 0.00 0.00 0.00 21 1003.4
20260503232002 22 261 30.6 46.7 0.00 0.00 0.00 20 1003.4
20260503231452 22 261 30.6 38.6 0.00 0.00 0.00 21 1003.4
20260503230942 22 261 30.6 49.9 0.00 0.00 0.00 24 1003.4
20260503230936 23 261 32.2 49.9 0.00 0.00 0.00 23 1003.5
20260503225938 23 261 32.2 45.1 0.00 0.00 0.00 22 1003.5
20260503225929 23 261 33.8 46.7 0.00 0.00 0.00 24 1003.4
20260503224919 23 261 32.2 46.7 0.00 0.00 0.00 25 1003.7
20260503224414 23 261 32.2 41.8 0.00 0.00 0.00 27 1003.7
20260503224408 22 261 30.6 43.5 0.00 0.00 0.00 27 1003.8
20260503223359 23 261 30.6 43.5 0.00 0.00 0.00 26 1003.9
20260503223353 23 261 30.6 49.9 0.00 0.00 0.00 25 1004.0
20260503222345 22 261 29.0 49.9 0.00 0.00 0.00 27 1004.1
20260503221838 22 261 27.4 45.1 0.00 0.00 0.00 28 1004.1
20260503221833 22 261 29.0 45.1 0.00 0.00 0.00 27 1004.2
20260503220831 22 261 29.0 45.1 0.00 0.00 0.00 27 1004.3
20260503220323 22 261 30.6 45.1 0.00 0.00 0.00 27 1004.2
20260503215818 22 261 32.2 45.1 0.00 0.00 0.00 27 1004.4
20260503215311 22 261 27.4 43.5 0.00 0.00 0.00 28 1004.4
20260503214804 22 261 25.7 46.7 0.00 0.00 0.00 28 1004.5
20260503214300 23 261 27.4 46.7 0.00 0.00 0.00 27 1004.9
20260503213758 23 261 27.4 40.2 0.00 0.00 0.00 28 1005.0
20260503213251 23 261 30.6 41.8 0.00 0.00 0.00 28 1005.1
20260503212743 23 261 29.0 41.8 0.00 0.00 0.00 27 1005.2
20260503212236 22 261 29.0 45.1 0.00 0.00 0.00 29 1005.3
20260503211729 22 261 29.0 45.1 0.00 0.00 0.00 27 1005.4
20260503211224 22 261 25.7 45.1 0.00 0.00 0.00 29 1005.4
20260503210718 22 261 27.4 45.1 0.00 0.00 0.00 27 1005.7
20260503210204 22 261 29.0 43.5 0.00 0.00 0.00 28 1005.7
20260503205702 22 261 30.6 46.7 0.00 0.00 0.00 28 1005.9
20260503205158 22 261 29.0 46.7 0.00 0.00 0.00 27 1005.9
20260503204646 23 261 25.7 40.2 0.00 0.00 0.00 26 1006.2
20260503204141 22 261 25.7 38.6 0.00 0.00 0.00 27 1006.3
20260503203640 22 261 27.4 45.1 0.00 0.00 0.00 26 1006.4
20260503203136 22 261 30.6 45.1 0.00 0.00 0.00 26 1006.6
20260503203131 22 261 32.2 49.9 0.00 0.00 0.00 27 1006.7
20260503202124 22 261 32.2 49.9 0.00 0.00 0.00 26 1006.8
20260503201624 22 261 29.0 46.7 0.00 0.00 0.00 27 1006.8
20260503201109 22 261 24.1 38.6 0.00 0.00 0.00 27 1007.0
20260503200548 22 261 27.4 40.2 0.00 0.00 0.00 28 1007.0
20260503200042 22 261 29.0 43.5 0.00 0.00 0.00 27 1007.2
20260503195533 22 261 27.4 41.8 0.00 0.00 0.00 26 1007.3
20260503195018 22 261 29.0 46.7 0.00 0.00 0.00 27 1007.3
20260503194513 22 261 30.6 46.7 0.00 0.00 0.00 26 1007.7
20260503194010 21 261 27.4 41.8 0.00 0.00 0.00 27 1007.7
20260503193509 22 261 27.4 40.2 0.00 0.00 0.00 27 1007.7
20260503193504 22 261 27.4 43.5 0.00 0.00 0.00 27 1007.8
20260503192455 22 261 25.7 43.5 0.00 0.00 0.00 27 1007.9
20260503191950 22 261 24.1 43.5 0.00 0.00 0.00 29 1007.9
20260503191442 21 261 24.1 43.5 0.00 0.00 0.00 29 1008.1
20260503191426 21 261 25.7 40.2 0.00 0.00 0.00 29 1008.2
20260503190418 21 261 29.0 41.8 0.00 0.00 0.00 29 1008.2
20260503185912 21 261 27.4 41.8 0.00 0.00 0.00 29 1008.4
20260503185406 21 261 25.7 40.2 0.00 0.00 0.00 28 1008.4
20260503184850 21 261 25.7 41.8 0.00 0.00 0.00 30 1008.5
20260503184343 21 261 27.4 41.8 0.00 0.00 0.00 29 1008.7
20260503183834 21 261 27.4 38.6 0.00 0.00 0.00 29 1009.0
20260503183323 20 261 22.5 38.6 0.00 0.00 0.00 29 1009.1
20260503182813 20 261 22.5 43.5 0.00 0.00 0.00 29 1009.3
20260503182304 20 261 24.1 43.5 0.00 0.00 0.00 29 1009.4
20260503181753 20 261 27.4 45.1 0.00 0.00 0.00 30 1009.4
20260503181243 20 261 27.4 48.3 0.00 0.00 0.00 30 1009.7
20260503180733 20 261 20.9 48.3 0.00 0.00 0.00 29 1009.7
20260503180230 20 261 20.9 35.4 0.00 0.00 0.00 28 1009.8
20260503175722 20 261 22.5 45.1 0.00 0.00 0.00 29 1009.9
20260503175219 20 261 22.5 45.1 0.00 0.00 0.00 29 1010.1
20260503174720 20 261 19.3 37.0 0.00 0.00 0.00 31 1010.3
20260503174211 20 261 20.9 37.0 0.00 0.00 0.00 29 1010.3
20260503174201 20 261 19.3 37.0 0.00 0.00 0.00 29 1010.5
20260503173144 20 261 17.7 35.4 0.00 0.00 0.00 29 1010.6
20260503172632 20 261 17.7 32.2 0.00 0.00 0.00 31 1010.6
20260503172124 20 261 22.5 32.2 0.00 0.00 0.00 28 1010.8
20260503171612 20 261 19.3 35.4 0.00 0.00 0.00 29 1010.8
20260503171103 19 261 19.3 38.6 0.00 0.00 0.00 31 1010.8
20260503170553 19 261 22.5 38.6 0.00 0.00 0.00 30 1011.0
20260503150659 15 261 16.1 22.5 0.00 0.00 0.00 42 1012.6
20260503150148 15 261 16.1 22.5 0.00 0.00 0.00 41 1012.6
20260503131315 5 0 1.6 6.4 0.00 0.00 0.00 69 1013.4
20260503130802 5 0 1.6 3.2 0.00 0.00 0.00 68 1013.4
20260503130253 4 0 0.0 3.2 0.00 0.00 0.00 72 1013.5
20260503110400 1 0 0.0 0.0 0.00 0.00 0.00 75 1013.7
20260503100221 1 0 0.0 0.0 0.00 0.00 0.00 74 1014.1
20260503090111 2 0 0.0 1.6 0.00 0.00 0.00 71 1014.2
20260503081534 3 0 0.0 0.0 0.00 0.00 0.00 66 1014.3
20260503081030 3 0 0.0 0.0 0.00 0.00 0.00 66 1014.3
20260503080528 3 0 0.0 0.0 0.00 0.00 0.00 66 1014.3
20260503080522 3 0 0.0 0.0 0.00 0.00 0.00 66 1014.3
20260503072500 4 0 0.0 1.6 0.00 0.00 0.00 63 1014.5
20260503071950 4 0 0.0 3.2 0.00 0.00 0.00 63 1014.5
20260503071441 4 0 0.0 3.2 0.00 0.00 0.00 62 1014.6
20260503070933 5 0 0.0 1.6 0.00 0.00 0.00 61 1014.5
20260503070431 5 0 0.0 1.6 0.00 0.00 0.00 60 1014.5